This demonstration page uses our WeatherBlox Daily Observations layout. Learn more.

Left ArrowRight Arrow

Hourly Observations for June 9, 2017

Temp ( °F °C ) Dew Point ( °F °C ) Humidity (%) Winds ( mph kmh ) Pressure ( in mb ) Visibility ( mi km ) Precip ( " mm )
12:06 am 00:06 Clear 61 16 48 9 63 63 S 3 6 29.91 1013 10 16 N/A
12:26 am 00:26 Clear 59 15 48 9 68 68 SSW 5 7 29.91 1013 10 16 N/A
12:47 am 00:47 Clear 61 16 48 9 63 63 S 5 7 29.91 1013 10 16 N/A
1:06 am 01:06 Clear 59 15 48 9 68 68 N N/A 29.91 1013 10 16 N/A
1:27 am 01:27 Clear 59 15 48 9 68 68 N N/A 29.91 1013 10 16 N/A
1:46 am 01:46 Clear 59 15 48 9 68 68 S 3 6 29.91 1013 10 16 N/A
2:06 am 02:06 Clear 59 15 50 10 72 72 SSW 5 7 29.91 1013 10 16 N/A
2:27 am 02:27 Clear 59 15 50 10 72 72 SW 7 11 29.88 1012 10 16 N/A
2:46 am 02:46 Clear 61 16 50 10 68 68 SW 6 9 29.88 1012 10 16 N/A
3:07 am 03:07 Clear 57 14 50 10 77 77 SW 5 7 29.88 1012 10 16 N/A
3:26 am 03:26 Clear 61 16 50 10 68 68 SW 7 11 29.88 1012 10 16 N/A
3:46 am 03:46 Clear 59 15 50 10 72 72 SSW 3 6 29.88 1012 10 16 N/A
4:07 am 04:07 Clear 57 14 50 10 77 77 N N/A 29.88 1012 10 16 N/A
4:26 am 04:26 Clear 57 14 50 10 77 77 SW 7 11 29.88 1012 10 16 N/A
4:47 am 04:47 Clear 61 16 50 10 68 68 SW 9 15 29.88 1012 10 16 N/A
5:06 am 05:06 Clear 61 16 50 10 68 68 SW 9 15 29.88 1012 10 16 N/A
5:27 am 05:27 Clear 61 16 50 10 68 68 SW 8 13 29.88 1012 10 16 N/A
5:46 am 05:46 Clear 59 15 50 10 72 72 SSW 8 13 29.88 1012 10 16 N/A
6:06 am 06:06 Clear 59 15 50 10 72 72 SW 7 11 29.88 1012 10 16 N/A
6:27 am 06:27 Sunny 59 15 50 10 72 72 SW 8 13 29.91 1013 10 16 N/A
6:46 am 06:46 Sunny 59 15 50 10 72 72 SW 8 13 29.91 1013 10 16 N/A
7:07 am 07:07 Sunny 61 16 52 11 72 72 SW 10 17 29.91 1013 10 16 N/A
7:26 am 07:26 Sunny 61 16 52 11 72 72 SW 9 15 29.91 1013 10 16 N/A
7:46 am 07:46 Sunny 61 16 52 11 72 72 SW 9 15 29.91 1013 10 16 N/A
8:07 am 08:07 Sunny 63 17 52 11 68 68 SW 9 15 29.91 1013 10 16 N/A
8:26 am 08:26 Partly Cloudy 63 17 52 11 68 68 SSW 6 9 29.91 1013 10 16 N/A
8:47 am 08:47 Partly Cloudy 63 17 52 11 68 68 SSW 8 13 29.91 1013 10 16 N/A
9:06 am 09:06 Partly Cloudy 66 19 52 11 60 60 SW 10 17 29.91 1013 10 16 N/A
9:27 am 09:27 Sunny 70 21 52 11 53 53 SW 13 20 29.91 1013 10 16 N/A
9:46 am 09:46 Sunny 72 22 52 11 50 50 SW 14 22 29.91 1013 10 16 N/A
10:07 am 10:07 Sunny 72 22 52 11 50 50 WSW 14 22 29.91 1013 10 16 N/A
10:26 am 10:26 Sunny 73 23 52 11 47 47 SW 12 19 29.91 1013 10 16 N/A
10:46 am 10:46 Sunny 73 23 52 11 47 47 SW 12 19 29.88 1012 10 16 N/A
11:07 am 11:07 Sunny 75 24 52 11 44 44 SW 12 19 29.91 1013 10 16 N/A
11:26 am 11:26 Sunny 75 24 52 11 44 44 WSW 9 15 29.88 1012 10 16 N/A
11:47 am 11:47 Sunny 77 25 52 11 42 42 SW 13 20 29.88 1012 10 16 N/A
12:06 pm 12:06 Sunny 79 26 52 11 39 39 SW 12 19 29.91 1013 10 16 N/A
12:26 pm 12:26 Sunny 81 27 52 11 37 37 SW 14 22 29.91 1013 10 16 N/A
12:46 pm 12:46 Sunny 81 27 52 11 37 37 SW 17 28 29.88 1012 10 16 N/A
1:06 pm 13:06 Sunny 81 27 52 11 37 37 SW 16 26 29.88 1012 10 16 N/A
1:27 pm 13:27 Partly Cloudy 82 28 50 10 32 32 SW 20 31 29.88 1012 10 16 N/A
1:46 pm 13:46 Partly Cloudy 82 28 52 11 35 35 W 14 22 29.88 1012 10 16 N/A
2:07 pm 14:07 Partly Cloudy 82 28 52 11 35 35 SW 20 31 29.88 1012 10 16 N/A
2:26 pm 14:26 Partly Cloudy 84 29 50 10 31 31 W 15 24 29.88 1012 10 16 N/A
2:46 pm 14:46 Sunny 82 28 50 10 32 32 SW 17 28 29.88 1012 10 16 N/A
3:07 pm 15:07 Sunny 84 29 50 10 31 31 SW 18 30 29.88 1012 10 16 N/A
3:26 pm 15:26 Sunny 84 29 52 11 33 33 SW 16 26 29.88 1012 10 16 N/A
3:47 pm 15:47 Partly Cloudy 82 28 52 11 35 35 SW 16 26 29.85 1011 10 16 N/A
4:06 pm 16:06 Sunny 84 29 52 11 33 33 WSW 13 20 29.85 1011 10 16 N/A
4:26 pm 16:26 Sunny 84 29 50 10 31 31 SW 13 20 29.85 1011 10 16 N/A
4:47 pm 16:47 Sunny 84 29 50 10 31 31 SW 15 24 29.85 1011 10 16 N/A
5:06 pm 17:06 Partly Cloudy 82 28 50 10 32 32 WSW 16 26 29.85 1011 10 16 N/A
5:27 pm 17:27 Partly Cloudy 84 29 50 10 31 31 WSW 13 20 29.85 1011 10 16 N/A
5:47 pm 17:47 Partly Cloudy 84 29 52 11 33 33 SW 16 26 29.85 1011 10 16 N/A
6:06 pm 18:06 Sunny 84 29 50 10 31 31 SW 16 26 29.85 1011 10 16 N/A
6:27 pm 18:27 Sunny 82 28 52 11 35 35 SW 15 24 29.85 1011 10 16 N/A
6:46 pm 18:46 Sunny 82 28 50 10 32 32 SW 16 26 29.85 1011 10 16 N/A
7:06 pm 19:06 Sunny 82 28 50 10 32 32 SW 16 26 29.85 1011 10 16 N/A
7:27 pm 19:27 Sunny 82 28 50 10 32 32 SW 17 28 29.83 1010 10 16 N/A
7:46 pm 19:46 Sunny 81 27 50 10 34 34 WSW 15 24 29.85 1011 10 16 N/A
8:07 pm 20:07 Sunny 81 27 50 10 34 34 SW 12 19 29.85 1011 10 16 N/A
8:26 pm 20:26 Sunny 81 27 50 10 34 34 SW 14 22 29.85 1011 10 16 N/A
8:47 pm 20:47 Partly Cloudy 79 26 50 10 37 37 SW 12 19 29.85 1011 10 16 N/A
9:06 pm 21:06 Partly Cloudy 77 25 50 10 39 39 SW 9 15 29.85 1011 10 16 N/A
9:26 pm 21:26 Clear 77 25 50 10 39 39 SW 8 13 29.85 1011 10 16 N/A
9:47 pm 21:47 Clear 75 24 50 10 41 41 SW 7 11 29.85 1011 10 16 N/A
10:06 pm 22:06 Clear 73 23 50 10 44 44 SSW 8 13 29.88 1012 10 16 N/A
10:27 pm 22:27 Clear 73 23 50 10 44 44 SSW 3 6 29.88 1012 10 16 N/A
10:47 pm 22:47 Clear 72 22 50 10 47 47 S 5 7 29.88 1012 10 16 N/A
11:06 pm 23:06 Clear 72 22 52 11 50 50 S 6 9 29.88 1012 10 16 N/A
11:27 pm 23:27 Clear 72 22 52 11 50 50 S 6 9 29.88 1012 10 16 N/A
11:46 pm 23:46 Clear 70 21 52 11 53 53 S 6 9 29.91 1013 10 16 N/A

Powered by AerisWeather